Time,TemperatureF,DewpointF,PressureIn,WindDirection,WindDirectionDegrees,WindSpeedMPH,WindSpeedGustMPH,Humidity,HourlyPrecipIn,Conditions,Clouds,dailyrainin,SoftwareType,DateUTC
2013-10-23 00:00:00,44.9,38.5,30.43,NE,45,1.0,5.0,78,0.00,,---,0.00,VWS V14.01,2013-10-23 05:00:00,
2013-10-23 00:10:00,45.2,38.8,30.43,NE,45,0.0,4.0,78,0.00,,---,0.00,VWS V14.01,2013-10-23 05:10:00,
2013-10-23 00:20:00,45.4,39.0,30.44,NE,45,0.0,0.0,78,0.00,,---,0.00,VWS V14.01,2013-10-23 05:20:00,
2013-10-23 00:30:00,45.5,39.0,30.44,NE,45,0.0,2.0,78,0.00,,---,0.00,VWS V14.01,2013-10-23 05:30:00,
2013-10-23 00:40:00,45.4,39.0,30.44,NE,45,0.0,0.0,78,0.00,,---,0.00,VWS V14.01,2013-10-23 05:40:00,
2013-10-23 00:50:00,44.9,38.5,30.45,NE,45,0.0,0.0,78,0.00,,---,0.00,VWS V14.01,2013-10-23 05:50:00,
2013-10-23 01:00:00,44.2,37.8,30.45,NE,45,0.0,0.0,78,0.00,,---,0.00,VWS V14.01,2013-10-23 06:00:00,
2013-10-23 01:10:00,43.6,37.2,30.45,NE,45,0.0,0.0,78,0.00,,---,0.00,VWS V14.01,2013-10-23 06:10:00,
2013-10-23 01:20:00,43.2,36.8,30.45,NE,45,0.0,2.0,78,0.00,,---,0.00,VWS V14.01,2013-10-23 06:20:00,
2013-10-23 01:30:00,42.8,36.4,30.46,NE,45,1.0,3.0,78,0.00,,---,0.00,VWS V14.01,2013-10-23 06:30:00,
2013-10-23 01:40:00,42.5,36.5,30.46,NE,45,1.0,3.0,79,0.00,,---,0.00,VWS V14.01,2013-10-23 06:40:00,
2013-10-23 01:50:00,42.6,37.2,30.46,NE,45,1.0,5.0,81,0.00,,---,0.00,VWS V14.01,2013-10-23 06:50:00,
2013-10-23 02:00:00,42.9,37.5,30.47,NE,45,2.0,4.0,81,0.00,,---,0.00,VWS V14.01,2013-10-23 07:00:00,
2013-10-23 02:10:00,43.2,37.8,30.47,NE,45,2.0,5.0,81,0.00,,---,0.00,VWS V14.01,2013-10-23 07:10:00,
2013-10-23 02:20:00,43.5,38.1,30.47,NE,45,1.0,5.0,81,0.00,,---,0.00,VWS V14.01,2013-10-23 07:20:00,
2013-10-23 02:30:00,43.5,38.1,30.47,NE,45,1.0,3.0,81,0.00,,---,0.00,VWS V14.01,2013-10-23 07:30:00,
2013-10-23 02:40:00,43.5,38.1,30.47,NE,45,0.0,3.0,81,0.00,,---,0.00,VWS V14.01,2013-10-23 07:40:00,
2013-10-23 02:50:00,43.3,37.6,30.47,NE,45,0.0,0.0,80,0.00,,---,0.00,VWS V14.01,2013-10-23 07:50:00,
2013-10-23 03:00:00,43.1,37.4,30.47,NE,45,0.0,3.0,80,0.00,,---,0.00,VWS V14.01,2013-10-23 08:00:00,
2013-10-23 03:10:00,42.6,37.2,30.47,NE,45,0.0,2.0,81,0.00,,---,0.00,VWS V14.01,2013-10-23 08:10:00,
2013-10-23 03:20:00,42.3,36.6,30.48,NE,45,0.0,0.0,80,0.00,,---,0.00,VWS V14.01,2013-10-23 08:20:00,
2013-10-23 03:30:00,41.8,36.1,30.47,NE,45,1.0,4.0,80,0.00,,---,0.00,VWS V14.01,2013-10-23 08:30:00,
2013-10-23 03:40:00,41.5,36.1,30.47,NE,45,3.0,5.0,81,0.00,,---,0.00,VWS V14.01,2013-10-23 08:40:00,
2013-10-23 03:50:00,41.3,35.9,30.47,NE,45,1.0,3.0,81,0.00,,---,0.00,VWS V14.01,2013-10-23 08:50:00,
2013-10-23 04:00:00,41.1,35.7,30.48,NE,45,0.0,1.0,81,0.00,,---,0.00,VWS V14.01,2013-10-23 09:00:00,
2013-10-23 04:10:00,40.5,35.1,30.48,NE,45,0.0,2.0,81,0.00,,---,0.00,VWS V14.01,2013-10-23 09:10:00,
2013-10-23 04:20:00,40.1,34.8,30.48,NE,45,0.0,0.0,81,0.00,,---,0.00,VWS V14.01,2013-10-23 09:20:00,
2013-10-23 04:30:00,39.6,34.3,30.48,NE,45,0.0,0.0,81,0.00,,---,0.00,VWS V14.01,2013-10-23 09:30:00,
2013-10-23 04:40:00,39.1,33.8,30.48,NE,45,0.0,0.0,81,0.00,,---,0.00,VWS V14.01,2013-10-23 09:40:00,
2013-10-23 04:50:00,38.5,33.2,30.48,NE,45,0.0,0.0,81,0.00,,---,0.00,VWS V14.01,2013-10-23 09:50:00,
2013-10-23 05:00:00,38.0,32.7,30.49,NE,45,0.0,0.0,81,0.00,,---,0.00,VWS V14.01,2013-10-23 10:00:00,
2013-10-23 05:10:00,37.5,32.2,30.49,NE,45,0.0,0.0,81,0.00,,---,0.00,VWS V14.01,2013-10-23 10:10:00,
2013-10-23 05:20:00,37.0,31.7,30.50,NE,45,0.0,1.0,81,0.00,,---,0.00,VWS V14.01,2013-10-23 10:20:00,
2013-10-23 05:30:00,36.6,31.6,30.50,NE,45,0.0,0.0,82,0.00,,---,0.00,VWS V14.01,2013-10-23 10:30:00,
2013-10-23 05:40:00,36.3,31.3,30.50,NE,45,0.0,0.0,82,0.00,,---,0.00,VWS V14.01,2013-10-23 10:40:00,
2013-10-23 05:50:00,35.9,31.0,30.52,NE,45,0.0,0.0,82,0.00,,---,0.00,VWS V14.01,2013-10-23 10:50:00,
2013-10-23 06:00:00,35.6,31.0,30.52,NE,45,0.0,0.0,83,0.00,,---,0.00,VWS V14.01,2013-10-23 11:00:00,
2013-10-23 06:10:00,35.3,30.7,30.52,NE,45,0.0,0.0,83,0.00,,---,0.00,VWS V14.01,2013-10-23 11:10:00,
2013-10-23 06:20:00,35.0,30.4,30.53,NE,45,0.0,2.0,83,0.00,,---,0.00,VWS V14.01,2013-10-23 11:20:00,
2013-10-23 06:30:00,34.9,30.6,30.55,NE,45,0.0,2.0,84,0.00,,---,0.00,VWS V14.01,2013-10-23 11:30:00,
2013-10-23 06:40:00,34.7,30.4,30.55,NE,45,0.0,1.0,84,0.00,,---,0.00,VWS V14.01,2013-10-23 11:40:00,
2013-10-23 06:50:00,34.6,30.3,30.54,NE,45,0.0,1.0,84,0.00,,---,0.00,VWS V14.01,2013-10-23 11:50:00,
2013-10-23 07:00:00,34.3,30.0,30.56,NE,45,0.0,2.0,84,0.00,,---,0.00,VWS V14.01,2013-10-23 12:00:00,
2013-10-23 07:10:00,34.0,29.7,30.56,NE,45,0.0,0.0,84,0.00,,---,0.00,VWS V14.01,2013-10-23 12:10:00,
2013-10-23 07:20:00,33.8,29.5,30.56,NE,45,0.0,0.0,84,0.00,,---,0.00,VWS V14.01,2013-10-23 12:20:00,
2013-10-23 07:30:00,33.7,29.4,30.57,NE,45,0.0,1.0,84,0.00,,---,0.00,VWS V14.01,2013-10-23 12:30:00,
2013-10-23 07:40:00,33.7,29.7,30.57,NE,45,0.0,0.0,85,0.00,,---,0.00,VWS V14.01,2013-10-23 12:40:00,
2013-10-23 07:50:00,33.7,29.7,30.58,NE,45,0.0,0.0,85,0.00,,---,0.00,VWS V14.01,2013-10-23 12:50:00,
2013-10-23 08:00:00,33.7,29.7,30.58,NE,45,0.0,0.0,85,0.00,,---,0.00,VWS V14.01,2013-10-23 13:00:00,
2013-10-23 08:10:00,33.7,30.0,30.58,NE,45,0.0,2.0,86,0.00,,---,0.00,VWS V14.01,2013-10-23 13:10:00,
2013-10-23 08:20:00,34.0,30.3,30.61,NE,45,0.0,2.0,86,0.00,,---,0.00,VWS V14.01,2013-10-23 13:20:00,
2013-10-23 08:30:00,34.6,31.1,30.60,NE,45,0.0,1.0,87,0.00,,---,0.00,VWS V14.01,2013-10-23 13:30:00,
2013-10-23 08:40:00,35.0,31.5,30.60,NE,45,0.0,0.0,87,0.00,,---,0.00,VWS V14.01,2013-10-23 13:40:00,
2013-10-23 08:50:00,35.6,32.4,30.59,NE,45,0.0,0.0,88,0.00,,---,0.00,VWS V14.01,2013-10-23 13:50:00,
2013-10-23 09:00:00,36.5,33.6,30.60,NE,45,0.0,0.0,89,0.00,,---,0.00,VWS V14.01,2013-10-23 14:00:00,
2013-10-23 09:10:00,38.0,35.3,30.60,NE,45,1.0,4.0,90,0.00,,---,0.00,VWS V14.01,2013-10-23 14:10:00,
2013-10-23 09:20:00,40.1,37.4,30.60,NE,45,2.0,5.0,90,0.00,,---,0.00,VWS V14.01,2013-10-23 14:20:00,
2013-10-23 09:30:00,41.3,38.6,30.59,NE,45,1.0,4.0,90,0.00,,---,0.00,VWS V14.01,2013-10-23 14:30:00,
2013-10-23 09:40:00,42.5,39.8,30.59,NE,45,0.0,3.0,90,0.00,,---,0.00,VWS V14.01,2013-10-23 14:40:00,
2013-10-23 09:50:00,43.8,40.8,30.58,NE,45,3.0,5.0,89,0.00,,---,0.00,VWS V14.01,2013-10-23 14:50:00,
2013-10-23 10:00:00,45.1,41.8,30.58,ENE,68,3.0,7.0,88,0.00,,---,0.00,VWS V14.01,2013-10-23 15:00:00,
2013-10-23 10:10:00,46.1,42.2,30.58,East,90,4.0,9.0,86,0.00,,---,0.00,VWS V14.01,2013-10-23 15:10:00,
2013-10-23 10:20:00,47.1,41.6,30.59,ENE,68,3.0,9.0,81,0.00,,---,0.00,VWS V14.01,2013-10-23 15:20:00,
2013-10-23 10:30:00,48.2,40.7,30.59,ENE,68,3.0,8.0,75,0.00,,---,0.00,VWS V14.01,2013-10-23 15:30:00,
2013-10-23 10:40:00,49.2,39.5,30.59,NE,45,2.0,7.0,69,0.00,,---,0.00,VWS V14.01,2013-10-23 15:40:00,
2013-10-23 10:50:00,50.5,38.8,30.59,ENE,68,4.0,10.0,64,0.00,,---,0.00,VWS V14.01,2013-10-23 15:50:00,
2013-10-23 11:00:00,51.3,37.0,30.57,ENE,68,3.0,6.0,58,0.00,,---,0.00,VWS V14.01,2013-10-23 16:00:00,
2013-10-23 11:10:00,52.6,38.7,30.57,ESE,112,4.0,8.0,59,0.00,,---,0.00,VWS V14.01,2013-10-23 16:10:00,
2013-10-23 11:20:00,53.9,38.6,30.57,ENE,68,3.0,7.0,56,0.00,,---,0.00,VWS V14.01,2013-10-23 16:20:00,
2013-10-23 11:30:00,54.5,37.7,30.57,NE,45,1.0,6.0,53,0.00,,---,0.00,VWS V14.01,2013-10-23 16:30:00,
2013-10-23 11:40:00,55.6,39.7,30.57,East,90,2.0,5.0,55,0.00,,---,0.00,VWS V14.01,2013-10-23 16:40:00,
2013-10-23 11:50:00,56.5,38.1,30.57,SSE,158,1.0,5.0,50,0.00,,---,0.00,VWS V14.01,2013-10-23 16:50:00,
2013-10-23 12:00:00,56.7,37.8,30.56,WSW,248,1.0,3.0,49,0.00,,---,0.00,VWS V14.01,2013-10-23 17:00:00,
2013-10-23 12:10:00,54.5,35.8,30.56,NNE,22,1.0,4.0,49,0.00,,---,0.00,VWS V14.01,2013-10-23 17:10:00,
2013-10-23 12:20:00,54.5,37.7,30.56,NNE,22,0.0,4.0,53,0.00,,---,0.00,VWS V14.01,2013-10-23 17:20:00,
2013-10-23 12:30:00,56.5,37.1,30.55,NE,45,2.0,4.0,48,0.00,,---,0.00,VWS V14.01,2013-10-23 17:30:00,
2013-10-23 12:40:00,56.7,38.3,30.55,NE,45,1.0,5.0,50,0.00,,---,0.00,VWS V14.01,2013-10-23 17:40:00,
2013-10-23 12:50:00,56.2,35.7,30.54,ENE,68,1.0,4.0,46,0.00,,---,0.00,VWS V14.01,2013-10-23 17:50:00,
2013-10-23 13:00:00,55.4,35.0,30.55,ENE,68,1.0,4.0,46,0.00,,---,0.00,VWS V14.01,2013-10-23 18:00:00,
2013-10-23 13:10:00,58.3,38.2,30.55,SSW,202,2.0,6.0,47,0.00,,---,0.00,VWS V14.01,2013-10-23 18:10:00,
2013-10-23 13:20:00,59.2,38.5,30.53,South,180,2.0,6.0,46,0.00,,---,0.00,VWS V14.01,2013-10-23 18:20:00,
2013-10-23 13:30:00,59.2,34.9,30.53,NNE,22,2.0,5.0,40,0.00,,---,0.00,VWS V14.01,2013-10-23 18:30:00,
2013-10-23 13:40:00,59.6,38.3,30.53,NNE,22,1.0,6.0,45,0.00,,---,0.00,VWS V14.01,2013-10-23 18:40:00,
2013-10-23 13:50:00,60.5,36.1,30.51,South,180,2.0,6.0,40,0.00,,---,0.00,VWS V14.01,2013-10-23 18:50:00,
2013-10-23 14:00:00,60.9,36.4,30.50,SSW,202,1.0,5.0,40,0.00,,---,0.00,VWS V14.01,2013-10-23 19:00:00,
2013-10-23 14:10:00,61.0,35.9,30.50,SSW,202,0.0,3.0,39,0.00,,---,0.00,VWS V14.01,2013-10-23 19:10:00,
2013-10-23 14:20:00,60.5,34.1,30.49,SE,135,1.0,6.0,37,0.00,,---,0.00,VWS V14.01,2013-10-23 19:20:00,
2013-10-23 14:30:00,63.4,38.7,30.47,ESE,112,2.0,7.0,40,0.00,,---,0.00,VWS V14.01,2013-10-23 19:30:00,
2013-10-23 14:40:00,60.9,33.1,30.47,South,180,2.0,6.0,35,0.00,,---,0.00,VWS V14.01,2013-10-23 19:40:00,
2013-10-23 14:50:00,61.0,31.0,30.47,South,180,1.0,4.0,32,0.00,,---,0.00,VWS V14.01,2013-10-23 19:50:00,
2013-10-23 15:00:00,62.4,35.1,30.47,SSW,202,1.0,5.0,36,0.00,,---,0.00,VWS V14.01,2013-10-23 20:00:00,
2013-10-23 15:10:00,63.2,32.9,30.47,SSW,202,1.0,4.0,32,0.00,,---,0.00,VWS V14.01,2013-10-23 20:10:00,
2013-10-23 15:20:00,63.5,31.5,30.47,South,180,1.0,4.0,30,0.00,,---,0.00,VWS V14.01,2013-10-23 20:20:00,
2013-10-23 15:30:00,64.2,34.5,30.46,SSE,158,1.0,5.0,33,0.00,,---,0.00,VWS V14.01,2013-10-23 20:30:00,
2013-10-23 15:40:00,63.4,29.8,30.46,WSW,248,1.0,4.0,28,0.00,,---,0.00,VWS V14.01,2013-10-23 20:40:00,
2013-10-23 15:50:00,63.2,30.4,30.46,WSW,248,1.0,4.0,29,0.00,,---,0.00,VWS V14.01,2013-10-23 20:50:00,
2013-10-23 16:00:00,64.0,33.6,30.46,WSW,248,2.0,6.0,32,0.00,,---,0.00,VWS V14.01,2013-10-23 21:00:00,
2013-10-23 16:10:00,63.7,34.1,30.46,WSW,248,4.0,7.0,33,0.00,,---,0.00,VWS V14.01,2013-10-23 21:10:00,
2013-10-23 16:20:00,63.4,32.3,30.45,West,270,3.0,7.0,31,0.00,,---,0.00,VWS V14.01,2013-10-23 21:20:00,
2013-10-23 16:30:00,63.5,33.9,30.45,West,270,4.0,7.0,33,0.00,,---,0.00,VWS V14.01,2013-10-23 21:30:00,
2013-10-23 16:40:00,63.7,34.8,30.45,WSW,248,5.0,9.0,34,0.00,,---,0.00,VWS V14.01,2013-10-23 21:40:00,
2013-10-23 16:50:00,63.2,30.4,30.46,WSW,248,1.0,4.0,29,0.00,,---,0.00,VWS V14.01,2013-10-23 21:50:00,
2013-10-23 17:00:00,64.0,33.6,30.46,WSW,248,2.0,6.0,32,0.00,,---,0.00,VWS V14.01,2013-10-23 22:00:00,
2013-10-23 17:10:00,63.7,34.1,30.46,WSW,248,4.0,7.0,33,0.00,,---,0.00,VWS V14.01,2013-10-23 22:10:00,
2013-10-23 17:20:00,63.4,32.3,30.45,West,270,3.0,7.0,31,0.00,,---,0.00,VWS V14.01,2013-10-23 22:20:00,
2013-10-23 17:30:00,63.5,33.9,30.45,West,270,4.0,7.0,33,0.00,,---,0.00,VWS V14.01,2013-10-23 22:30:00,
2013-10-23 17:40:00,63.7,34.8,30.45,WSW,248,5.0,9.0,34,0.00,,---,0.00,VWS V14.01,2013-10-23 22:40:00,